Flight Track Log - Related Links

Times and Time Zones

All times are in EDT time to prevent confusion due to time zone crossing. See the CJT620 flight status page for this flight to view local times or setup timezone preferences in your user account.

Time Position Orientation Groundspeed Altitude Reporting Facility
EDT Latitude Longitude Course Direction KTS MPH feet Rate Location/Type
Wed 02:44:24 AM 46.0667 -64.7833 226° Southwest 190 219 5,800  Level Moncton Center
Wed 02:45:24 AM 46.0167 -64.7167 137° Southeast 290 334 9,900 2,900 Climbing Moncton Center
Wed 02:46:24 AM 45.9500 -64.6167 134° Southeast 340 391 11,600 2,050 Climbing Moncton Center
Wed 02:47:24 AM 45.8667 -64.5000 136° Southeast 400 460 14,000 1,700 Climbing Moncton Center
Wed 02:48:00 AM 45.9124 -64.3003 152° Southeast  Level FlightAware Approximate
Wed 02:48:24 AM 45.7833 -64.3667 132° Southeast 430 495 15,000  Level Moncton Center
Wed 02:49:24 AM 45.7000 -64.2500 136° Southeast 430 495 14,900 -50 Descending Moncton Center
Wed 02:50:24 AM 45.6000 -64.1333 141° Southeast 440 506 14,900 -600 Level Moncton Center
Wed 02:51:24 AM 45.5167 -63.9833 128° Southeast 430 495 13,700 -1,700 Descending Moncton Center
Wed 02:52:24 AM 45.4333 -63.9000 145° Southeast 420 483 11,500 -1,600 Descending Moncton Center
Wed 02:53:24 AM 45.3500 -63.7833 135° Southeast 400 460 10,500 -800 Descending Moncton Center
Wed 02:54:24 AM 45.3000 -63.6833 125° Southeast 350 403 9,900 -1,000 Descending Moncton Center
Wed 02:55:24 AM 45.2333 -63.5833 133° Southeast 320 368 8,500 -1,300 Descending Moncton Center
Wed 02:56:24 AM 45.1667 -63.5000 139° Southeast 300 345 7,300 -1,250 Descending Moncton Center
Wed 02:57:24 AM 45.1167 -63.4333 137° Southeast 280 322 6,000 -1,200 Descending Moncton Center
Wed 02:58:24 AM 45.0833 -63.3500 120° Southeast 240 276 4,900 -800 Descending Moncton Center
Wed 02:59:24 AM 45.0333 -63.3333 167° South 200 230 4,400 -650 Descending Moncton Center
Wed 03:00:24 AM 45.0000 -63.3500 199° South 140 161 3,600 -750 Descending Moncton Center
Wed 03:01:24 AM 44.9667 -63.4000 227° Southwest 130 150 2,900 -700 Descending Moncton Center
Wed 03:02:24 AM 44.9333 -63.4333 215° Southwest 120 138 2,200 -600 Descending Moncton Center
Wed 03:03:24 AM 44.9167 -63.4500 215° Southwest 100 115 1,700 -550 Descending Moncton Center
Wed 03:04:24 AM 44.9000 -63.4833 235° Southwest 100 115 1,100 -600 Descending Moncton Center
Wed 03:05:24 AM 44.8667 -63.5000 200° South 110 127 500 -600 Descending Moncton Center

Login

Don't have an account? Register now (free) for customized features, flight alerts, and more!